HINODE (SOLAR-B)

Last updated on Tue Sep 16 2025 00:03:34 GMT+0000 (Coordinated Universal Time)

1 29479U 06041A 25258.56920473 .00000638 00000+0 11940-3 0 9994 2 29479 98.0716 273.6531 0019059 80.1667 280.1689 14.68073583 14579
UTC large
Height (km)
Speed (km/s)
/
Latitude / Longitude
Inclination (degrees)
Orbital Period (minutes)
Azimuth
Elevation
Range (km)
Doppler Factor

Next 0 passes for location: London (51.5072 / 0.1276)

Sorry there are no passes over London.